Location: Ripley
(48.3812°N, 115.4473°W)
Time: 11:13:13
(UTC+00:00)

AIST 2D - Pass Details

Date: 01 July 2022
Orbit: 433 x 444 km, 97.0° (Epoch: 09 August)

Event Time Altitude Azimuth Distance (km) Brightness Sun altitude
Rises 06:33:29 0° 355° (N) 2,427 ? -16.7°
Reaches altitude 10° 06:36:15 10° 329° (NNW) 1,554 ? -16.8°
Maximum altitude 06:38:01 14° 296° (WNW) 1,333 ? -16.9°
Drops below altitude 10° 06:39:48 10° 264° (W) 1,550 ? -17.0°
Enters shadow 06:41:56 - 241° (WSW) 2,196 ? -17.1°
